Simultaneous Nadir Overpasses (SNOs) Predictions

Prediction of SNOs between GOES-16 and NOAA-19 Satellite Orbit:

Table of predicted SNOs for the next 14.0 days since TLE Epoch: 8/16/2019
Index Date Time (GOES-16) GOES-16 Lat,Lon NOAA-19 Lat,Lon Distance(km) Time Diff (sec)
1 08/16/2019 21:56:39 0.04, -75.16 0.70, -72.47 308.56 80
2 08/19/2019 10:17:44 -0.04, -75.22 0.46, -77.45 254.89 80
3 08/20/2019 10:03:25 -0.05, -75.24 -0.20, -74.61 71.82 80
4 08/21/2019 09:51:47 -0.05, -75.26 -0.86, -71.77 398.63 80
5 08/22/2019 22:27:14 0.04, -75.29 -0.98, -79.61 494.46 80
6 08/23/2019 22:15:37 0.05, -75.31 -0.27, -76.78 167.63 80
7 08/24/2019 22:01:18 0.05, -75.33 0.37, -73.94 159.26 80
8 08/25/2019 21:49:41 0.05, -75.36 1.07, -71.11 486.14 80
9 08/27/2019 10:25:01 -0.05, -75.40 0.78, -78.92 401.58 80
10 08/28/2019 10:13:23 -0.06, -75.43 0.12, -76.07 74.49 80
11 08/29/2019 09:59:04 -0.06, -75.45 -0.55, -73.23 252.82 80




NCC Satellite Simultaneous Nadir Overpasses (SNOs) Prediction Service
